AP893 Weather Reports


Display with metric or nautical units.
time (UTC)temp
F
wind
direction
speed
MPH
gust
MPH
rain 1hr
in
rain 24hr
in
rain mn
in
humidity
%
barometer
mb
20260509153011 65 106 0.0 0.0 0.00 0.00 0.00 66 1018.1
20260509152010 63 106 0.0 0.0 0.00 0.00 0.00 73 1018.0
20260509151010 60 106 0.0 0.0 0.00 0.00 0.00 80 1017.9
20260509150009 57 106 0.0 0.0 0.00 0.00 0.00 87 1017.8
20260509145010 56 106 0.0 0.0 0.00 0.00 0.00 92 1017.8
20260509144010 55 106 0.0 0.0 0.00 0.00 0.00 100 1017.7
20260509143009 54 106 0.0 0.0 0.00 0.00 0.00 100 1017.7
20260509142010 53 106 0.0 0.0 0.00 0.00 0.00 100 1017.7
20260509141010 53 106 0.0 0.0 0.00 0.00 0.00 100 1017.5
20260509140009 52 106 0.0 0.0 0.00 0.00 0.00 100 1017.3
20260509134009 51 106 0.0 0.0 0.00 0.00 0.00 100 1017.3
20260509133010 51 106 0.0 0.0 0.00 0.00 0.00 100 1017.3
20260509132010 51 106 0.0 0.0 0.00 0.00 0.00 100 1017.3
20260509131010 51 106 0.0 0.0 0.00 0.00 0.00 100 1017.3
20260509130010 51 106 0.0 0.0 0.00 0.00 0.00 100 1017.2
20260509125010 51 106 0.0 0.0 0.00 0.00 0.00 100 1017.2
20260509124010 51 106 0.0 0.0 0.00 0.00 0.00 100 1017.2
20260509123010 51 106 0.0 0.0 0.00 0.00 0.00 100 1017.2
20260509122010 51 106 0.0 0.0 0.00 0.00 0.00 100 1017.2
20260509121010 51 106 0.0 0.0 0.00 0.00 0.00 100 1017.2
20260509115010 51 106 0.0 0.0 0.00 0.00 0.00 100 1017.3
20260509114010 51 106 0.0 0.0 0.00 0.00 0.00 100 1017.3
20260509112010 51 106 0.0 0.0 0.00 0.00 0.00 100 1017.3
20260509111010 52 106 0.0 0.0 0.00 0.00 0.00 100 1017.2
20260509110009 52 106 0.0 0.0 0.00 0.00 0.00 100 1017.3
20260509105009 52 106 0.0 0.0 0.00 0.00 0.00 100 1017.3
20260509104009 52 106 0.0 0.0 0.00 0.00 0.00 99 1017.3
20260509103009 52 106 0.0 0.0 0.00 0.00 0.00 98 1017.3
20260509102010 52 106 0.0 0.0 0.00 0.00 0.00 98 1017.4
20260509101010 53 106 0.0 0.0 0.00 0.00 0.00 97 1017.5
20260509100009 53 106 0.0 0.0 0.00 0.00 0.00 97 1017.5
20260509095009 53 106 0.0 0.0 0.00 0.00 0.00 97 1017.5
20260509094009 53 106 0.0 0.0 0.00 0.00 0.00 97 1017.5
20260509093010 53 106 0.0 0.0 0.00 0.00 0.00 97 1017.5
20260509092014 53 106 0.0 0.0 0.00 0.00 0.00 97 1017.5
20260509091009 53 106 0.0 0.0 0.00 0.00 0.00 96 1017.7
20260509090009 53 106 0.0 0.0 0.00 0.00 0.00 96 1017.8
20260509085009 53 106 0.0 0.0 0.00 0.00 0.00 96 1017.8
20260509084009 53 106 0.0 0.0 0.00 0.00 0.00 96 1017.7
20260509083010 54 106 0.0 0.0 0.00 0.00 0.00 95 1017.8
20260509082010 54 106 0.0 0.0 0.00 0.00 0.00 94 1018.0
20260509081010 54 106 0.0 6.0 0.00 0.00 0.00 94 1018.0
20260509080009 54 117 0.0 0.0 0.00 0.00 0.00 94 1018.1
20260509074010 55 117 0.0 0.0 0.00 0.00 0.00 93 1018.1
20260509073010 55 117 0.0 2.0 0.00 0.00 0.00 93 1018.2
20260509072010 55 109 0.0 0.0 0.00 0.00 0.00 93 1018.2
20260509071009 55 109 0.0 0.0 0.00 0.00 0.00 93 1018.2
20260509070010 55 109 0.0 5.0 0.00 0.00 0.00 93 1018.3
20260509064009 55 136 0.0 3.0 0.00 0.00 0.00 93 1018.4
20260509063010 55 136 0.0 3.0 0.00 0.00 0.00 92 1018.4
20260509062011 55 136 0.0 5.0 0.00 0.00 0.00 92 1018.4
20260509061009 55 151 0.0 0.0 0.00 0.00 0.00 90 1018.4
20260509055010 56 151 0.0 0.0 0.00 0.00 0.00 87 1018.5
20260509054009 56 151 0.0 0.0 0.00 0.00 0.00 86 1018.6
20260509053010 57 151 0.0 0.0 0.00 0.00 0.00 84 1018.6
20260509052009 57 151 0.0 0.0 0.00 0.00 0.00 82 1018.6
20260509051010 58 151 0.0 3.0 0.00 0.00 0.00 80 1018.6
20260509045009 59 8 0.0 0.0 0.00 0.00 0.00 76 1018.6
20260509044010 59 8 0.0 0.0 0.00 0.00 0.00 74 1018.6
20260509043009 60 8 0.0 0.0 0.00 0.00 0.00 72 1018.6
20260509042010 61 8 0.0 0.0 0.00 0.00 0.00 69 1018.6
20260509041010 62 8 0.0 0.0 0.00 0.00 0.00 67 1018.5
20260509040010 63 8 0.0 0.0 0.00 0.00 0.00 65 1018.5
20260509033009 66 8 0.0 0.0 0.00 0.00 0.00 57 1018.5
20260509032009 67 8 0.0 0.0 0.00 0.00 0.00 54 1018.5
20260509030009 68 8 0.0 0.0 0.00 0.00 0.00 51 1018.5
20260509025010 69 8 0.0 0.0 0.00 0.00 0.00 50 1018.6
20260509024010 70 8 0.0 0.0 0.00 0.00 0.00 48 1018.6
20260509023011 72 8 0.0 0.0 0.00 0.00 0.00 47 1018.5
20260509022010 72 8 0.0 0.0 0.00 0.00 0.00 46 1018.5
20260509021010 73 8 0.0 0.0 0.00 0.00 0.00 46 1018.5
20260509020010 74 8 0.0 6.0 0.00 0.00 0.00 44 1018.5
20260509015009 74 281 1.0 5.0 0.00 0.00 0.00 43 1018.5
20260509014010 75 291 1.0 7.0 0.00 0.00 0.00 42 1018.6
20260509013010 75 311 0.0 5.0 0.00 0.00 0.00 41 1018.8
20260509012010 76 261 0.0 6.0 0.00 0.00 0.00 40 1018.9
20260509011010 76 342 0.0 8.0 0.00 0.00 0.00 38 1018.8
20260509010009 76 271 0.0 6.0 0.00 0.00 0.00 37 1018.8
20260509005009 76 322 1.0 8.0 0.00 0.00 0.00 36 1018.8
20260509004010 77 317 4.0 9.0 0.00 0.00 0.00 34 1018.9
20260509003010 77 37 0.0 9.0 0.00 0.00 0.00 32 1019.0
20260508235010 80 31 2.0 7.0 0.00 0.00 0.00 26 1019.2
20260508234010 79 333 0.0 0.0 0.00 0.00 0.00 30 1019.1
20260508233010 79 333 1.0 8.0 0.00 0.00 0.00 29 1019.3
20260508232010 79 308 2.0 10.0 0.00 0.00 0.00 31 1019.3
20260508230009 80 322 2.0 7.0 0.00 0.00 0.00 30 1019.6
20260508225009 80 351 2.0 12.0 0.00 0.00 0.00 33 1019.6
20260508223010 81 321 5.0 9.0 0.00 0.00 0.00 31 1019.9
20260508222009 80 256 0.0 7.0 0.00 0.00 0.00 31 1020.0
20260508221011 80 99 1.0 9.0 0.00 0.00 0.00 33 1020.0
20260508220009 80 98 1.0 7.0 0.00 0.00 0.00 32 1020.1
20260508215010 79 260 2.0 8.0 0.00 0.00 0.00 32 1020.2
20260508214009 79 347 3.0 10.0 0.00 0.00 0.00 33 1020.3
20260508213009 79 359 5.0 10.0 0.00 0.00 0.00 30 1020.4
20260508212010 79 311 4.0 13.0 0.00 0.00 0.00 32 1020.4
20260508211010 79 1 6.0 13.0 0.00 0.00 0.00 29 1020.5
20260508204010 79 342 6.0 12.0 0.00 0.00 0.00 30 1020.5
20260508202010 78 350 6.0 12.0 0.00 0.00 0.00 37 1020.5
20260508201011 78 341 7.0 14.0 0.00 0.00 0.00 38 1020.5
20260508200010 78 0 3.0 13.0 0.00 0.00 0.00 38 1020.5
20260508195010 78 338 3.0 9.0 0.00 0.00 0.00 41 1020.5
20260508194009 77 354 3.0 12.0 0.00 0.00 0.00 45 1020.5
20260508192009 77 300 7.0 12.0 0.00 0.00 0.00 44 1020.7
20260508191010 77 11 5.0 13.0 0.00 0.00 0.00 44 1020.6
20260508185009 78 11 0.0 9.0 0.00 0.00 0.00 42 1020.8
20260508184009 78 302 3.0 9.0 0.00 0.00 0.00 41 1020.8
20260508182009 78 322 1.0 7.0 0.00 0.00 0.00 41 1020.8
20260508180009 76 311 3.0 10.0 0.00 0.00 0.00 43 1020.8
20260508175009 76 0 1.0 10.0 0.00 0.00 0.00 43 1020.8
20260508174009 76 2 2.0 9.0 0.00 0.00 0.00 41 1020.7
20260508173009 77 334 5.0 9.0 0.00 0.00 0.00 39 1020.7
20260508172009 76 358 1.0 7.0 0.00 0.00 0.00 37 1020.6
20260508171009 77 340 2.0 8.0 0.00 0.00 0.00 37 1020.7
20260508170009 77 99 0.0 0.0 0.00 0.00 0.00 34 1020.6
20260508165009 76 99 0.0 2.0 0.00 0.00 0.00 37 1020.6
20260508164009 74 160 0.0 0.0 0.00 0.00 0.00 42 1020.5
20260508162009 70 34 1.0 7.0 0.00 0.00 0.00 45 1020.5
20260508161010 69 203 3.0 7.0 0.00 0.00 0.00 46 1020.5
20260508160010 69 123 2.0 7.0 0.00 0.00 0.00 48 1020.5
20260508155009 68 150 3.0 6.0 0.00 0.00 0.00 50 1020.4
20260508154011 67 140 1.0 6.0 0.00 0.00 0.00 55 1020.5